TimeEST,TemperatureF,Dew PointF,Humidity,Sea Level PressureIn,VisibilityMPH,Wind Direction,Wind SpeedMPH,Gust SpeedMPH,PrecipitationIn,Events,Conditions,WindDirDegrees,DateUTC
12:52 AM,37.0,17.1,44,30.12,10.0,South,9.2,-,N/A,,Mostly Cloudy,180,2013-02-19 05:52:00
1:52 AM,36.0,18.0,48,30.11,10.0,South,9.2,-,N/A,,Mostly Cloudy,190,2013-02-19 06:52:00
2:52 AM,35.1,18.0,50,30.09,10.0,SSE,6.9,-,N/A,,Mostly Cloudy,150,2013-02-19 07:52:00
3:52 AM,36.0,19.0,50,30.06,10.0,South,8.1,-,N/A,,Mostly Cloudy,180,2013-02-19 08:52:00
4:52 AM,37.9,19.9,48,30.02,10.0,South,9.2,-,N/A,,Overcast,180,2013-02-19 09:52:00
5:52 AM,39.0,21.0,49,30.00,10.0,South,12.7,19.6,N/A,,Overcast,170,2013-02-19 10:52:00
6:52 AM,39.0,21.9,50,30.00,10.0,South,15.0,20.7,N/A,,Overcast,190,2013-02-19 11:52:00
7:52 AM,39.9,23.0,51,29.98,10.0,South,15.0,20.7,N/A,,Mostly Cloudy,180,2013-02-19 12:52:00
8:48 AM,39.2,24.8,56,29.98,1.5,SSW,18.4,31.1,0.00,,Unknown,210,2013-02-19 13:48:00
8:52 AM,37.9,26.1,62,29.97,1.5,SSW,13.8,31.1,0.00,Snow,Light Snow,210,2013-02-19 13:52:00
8:58 AM,37.4,28.4,70,29.97,3.0,SSW,19.6,27.6,0.00,Rain,Light Ice Pellets,200,2013-02-19 13:58:00
9:28 AM,37.4,30.2,75,29.95,7.0,SSW,16.1,28.8,0.02,Rain,Light Rain,200,2013-02-19 14:28:00
9:52 AM,37.9,30.9,76,29.96,10.0,SSW,19.6,27.6,0.02,,Overcast,200,2013-02-19 14:52:00
10:52 AM,39.0,34.0,82,29.92,8.0,South,15.0,25.3,0.03,Rain,Light Rain,180,2013-02-19 15:52:00
11:11 AM,39.2,33.8,81,29.91,7.0,South,19.6,31.1,0.00,Rain,Light Rain,190,2013-02-19 16:11:00
11:52 AM,39.9,36.0,86,29.88,7.0,South,16.1,24.2,0.01,Rain,Light Rain,180,2013-02-19 16:52:00
12:08 PM,39.2,35.6,87,29.87,10.0,South,17.3,26.5,0.01,Rain,Light Rain,190,2013-02-19 17:08:00
1:52 PM,42.1,37.9,85,29.79,10.0,South,15.0,21.9,0.00,,Overcast,190,2013-02-19 18:52:00
2:52 PM,44.1,37.9,79,29.75,8.0,SSW,13.8,26.5,N/A,,Overcast,200,2013-02-19 19:52:00
3:52 PM,44.1,39.0,82,29.73,10.0,SSW,18.4,24.2,N/A,,Overcast,210,2013-02-19 20:52:00
4:52 PM,44.1,37.9,79,29.73,10.0,SSW,18.4,23.0,N/A,,Mostly Cloudy,210,2013-02-19 21:52:00
5:14 PM,44.6,37.4,76,29.77,10.0,West,11.5,-,N/A,,Mostly Cloudy,260,2013-02-19 22:14:00
5:39 PM,42.8,39.2,87,29.75,10.0,South,6.9,-,0.00,,Mostly Cloudy,180,2013-02-19 22:39:00
5:52 PM,42.1,39.0,89,29.77,10.0,South,9.2,-,0.00,,Mostly Cloudy,190,2013-02-19 22:52:00
7:52 PM,37.9,36.0,93,29.81,10.0,West,3.5,-,N/A,,Partly Cloudy,260,2013-02-20 00:52:00
8:52 PM,39.0,28.0,65,29.83,10.0,WNW,11.5,-,N/A,,Partly Cloudy,290,2013-02-20 01:52:00
10:52 PM,37.0,24.1,59,29.86,10.0,NW,10.4,-,N/A,,Partly Cloudy,310,2013-02-20 03:52:00
11:52 PM,36.0,23.0,59,29.86,10.0,WNW,13.8,23.0,N/A,,Clear,300,2013-02-20 04:52:00